Regional Weather Roundup
Issued by NWS Wakefield, VA

Home | Current Version | Previous Version | Graphics & Text | Print | Product List | Glossary On
Versions: 1 2 3 4 5 6 7 8 9 10 11 12 13 14 15 16 17 18 19 20 21 22 23 24 25 26 27 28 29 30 31 32 33 34 35 36 37 38 39 40 41 42 43 44 45 46 47 48 49 50
000
ASUS41 KAKQ 232210
RWRAKQ

REGIONAL WEATHER ROUNDUP
NATIONAL WEATHER SERVICE WAKEFIELD VA
600 PM EDT WED JUL 23 2014

Note: "fair" indicates few or no clouds below 12,000 feet with no
significant weather and/or obstructions to visibility. * = Denotes
station may not report precipitation (e.g., rain,snow,etc.),
thunder or fog.

VAZ042-051-052>054-056-232300-
NORTHERN VIRGINIA

CITY           SKY/WX    TMP DP  RH WIND       PRES   REMARKS
WASH NATIONAL  MOSUNNY   93  69  45 S14G21    29.80F HX  98
DULLES         PTSUNNY   88  70  55 SW9       29.81F
FORT BELVOIR   DRIZZLE   91  71  52 VRB5      29.81F HX  98
QUANTICO       PTSUNNY   89  76  65 S6        29.82F HX 100
FREDERICKSBRG* MOSUNNY   94  70  45 SW7       29.81F HX 100
STAFFORD*      MOSUNNY   90  71  53 CALM      29.86F HX  96
WARRENTON      MOSUNNY   91  77  63 S8        29.82F HX 105
CULPEPER*      MOSUNNY  N/A N/A N/A SW6       29.83F
MANASSAS*      SUNNY     91  73  55 S10       29.83F HX 100
LEESBURG*      SUNNY     90  72  55 SW10      29.83F HX  96
WINCHESTER     LGT RAIN  81  70  69 SW7       29.84R
$$

VAZ048-049-060>072-079>083-232300-
CENTRAL AND SOUTH CENTRAL VIRGINIA...AND NORTH CENTRAL NORTH CAROLINA

CITY           SKY/WX    TMP DP  RH WIND       PRES   REMARKS
RICHMOND       MOSUNNY   93  70  46 S13       29.84F HX  99
CHESTERFIELD*  CLEAR    N/A N/A N/A SW9       29.86F
HANOVER        MOSUNNY   94  68  42 S13       29.84F HX  98
TAPPAHANNOCK*  MOSUNNY   93  65  40 S9G16     29.84F HX  95
CHARLOTTSVILLE PTSUNNY   87  73  62 VRB3      29.85F
ORANGE*        MOSUNNY   90  72  55 SW6       29.85F HX  96
LOUISA*        MOSUNNY   91  68  46 SW6       29.84F HX  95
FARMVILLE*     PTSUNNY   93  68  43 SW10      29.86S HX  97
SOUTH HILL*    SUNNY     91  72  52 SW9       29.95S HX  98
ROANOKE RAPIDS PTCLDY    93  70  46 SW9       29.90S HX  99
RALEIGH        MOSUNNY   91  70  49 SW10      29.92F HX  96
$$

VAZ088>098-232300-
SOUTHEAST VIRGINIA

CITY           SKY/WX    TMP DP  RH WIND       PRES   REMARKS
NORFOLK        MOSUNNY   90  71  53 SW16      29.87F HX  96
VIRGINIA BEACH MOSUNNY   89  72  56 SW13      29.87F HX  96
NORFOLK NAVAL  MOSUNNY   90  72  55 S7        29.88F HX  97
WEST POINT*    SUNNY     93  69  45 S7        29.86F HX  98
NEWPORT NEWS   SUNNY     94  72  48 SW14      29.87F HX 102
LANGLEY AFB    MOSUNNY   90  73  56 SW13      29.86F HX  98
FORT EUSTIS    SUNNY     90  75  62 S9        29.85F HX 100
WILLIAMSBURG*  SUNNY     93  75  55 S8        29.86F HX 104
FRANKLIN*      MOSUNNY   90  72  55 S10       29.88F HX  96
WAKEFIELD      SUNNY     90  72  55 S7        29.87F HX  97
$$

VAZ020-022-025-037-045-232300-
WESTERN AND SOUTHWEST VIRGINIA

CITY           SKY/WX    TMP DP  RH WIND       PRES   REMARKS
STAUNTON*      PTSUNNY   87  70  57 S8        29.91S
HOT SPRINGS VA PTSUNNY   75  61  62 W15       30.09F
LYNCHBURG      MOSUNNY   89  69  51 SW7       29.92S
DANVILLE       MOSUNNY   90  68  48 S7        29.92S
MARTINSVILLE   PTSUNNY   91  66  43 NW3       29.96S
ROANOKE        NOT AVBL
BLACKSBURG     PTSUNNY   84  70  61 W5        30.04S
DUBLIN*        PTSUNNY   85  66  51 NW6       30.03S
MARION*        PTSUNNY   79  70  74 W10       30.09S
HILLSVILLE*    CLOUDY    70  67  88 SE7       30.08S
RICHLANDS*     CLOUDY    76  72  86 W5        30.09F
WISE*          LGT RAIN  72  61  68 W5        30.10S
ABINGDON*      CLOUDY    79  69  72 W6        30.06F
$$

MDZ021>025-VAZ099-100-232300-
SOUTHERN MARYLAND AND THE DELMARVA PENINSULA

CITY           SKY/WX    TMP DP  RH WIND       PRES   REMARKS
PATUXENT RIVER PTSUNNY   86  76  71 SE10      29.82F HX  96
BAY BRIDGE APT   N/A     88  72  58 S12       29.81F
LEONARDTOWN    MOSUNNY   88  70  55 S6        29.84F
DOVER          SUNNY     89  75  63 S15       29.81F HX  98
GEORGETOWN     SUNNY     89  71  55 S14       29.84F HX  95
EASTON         MOSUNNY   91  75  59 SW12G17   29.86F HX 102
CAMBRIDGE      MOSUNNY   90  73  58 S9        29.83F HX  98
SALISBURY      NOT AVBL
OCEAN CITY     SUNNY     80  74  81 S9        29.86F
WALLOPS ISLAND SUNNY     83  75  77 SW15      29.87F
ACCOMACK*        N/A     84  72  65 S13       29.87F
$$

NCZ012>017-030>032-232300-
EASTERN NORTH CAROLINA

CITY           SKY/WX    TMP DP  RH WIND       PRES   REMARKS
ELIZABETH CITY SUNNY     87  73  62 S10       29.90F
AHOSKIE*       SUNNY     87  73  63 S6        29.90F HX  95
EDENTON*       SUNNY     89  74  60 SW7       29.91F HX  97
CURRITUCK*     MOSUNNY   91  70  49 S5        29.91F HX  97
KILL DEVIL HLS MOSUNNY   84  76  77 S6        29.91F
MANTEO         NOT AVBL
CAPE HATTERAS  MOSUNNY   81  76  84 SW10      29.96F
GOLDSBORO      MOSUNNY   86  76  71 SW9       29.92S HX  96
WASHINGTON     MOSUNNY   82  73  74 S9        29.94S
GREENVILLE     PTSUNNY   88  73  62 SW8       29.94F HX  96
NEW BERN       MOSUNNY   87  76  69 S7        29.95F HX  97
WILMINGTON     SUNNY     87  74  64 S12       29.97S HX  95
$$

VAZ048-232300-
ELSEWHERE

CITY           SKY/WX    TMP DP  RH WIND       PRES   REMARKS
HARRISBURG PA  PTSUNNY   81  71  71 SE7       29.80F THUNDER
BALTIMORE      MOSUNNY   91  67  44 SW12G17   29.79F
ANNAPOLIS      MOSUNNY   85  75  72 S15G23    29.80F
ANDREWS AFB    MOSUNNY   90  72  55 S14       29.82F HX  97
WILMINGTON DE  MOSUNNY   88  74  63 S13       29.80F HX  96
PHILADELPHIA   MOSUNNY   91  69  48 S15G28    29.80F HX  96
WILDWOOD NJ*   SUNNY     82  70  65 S15G21    29.85F
ATLANTIC CITY  SUNNY     82  69  64 S12G21    29.84F
HENDERSON NC   MOSUNNY   90  67  46 S10G16    29.92R
GREENSBORO     PTSUNNY   87  68  52 W10       29.95S
ROCKY MOUNT    MOSUNNY   89  74  60 SW12      29.92F HX  98
FAYETTEVILLE   PTSUNNY   88  72  58 S9        29.95F
CHARLOTTE      MOSUNNY   89  69  51 W8        29.97F
$$

VAZ100-232300-
MARINE

STATION/POSITION TIME  TEMP    WIND        PRES    WAVE   SWELL
                       AIR SEA DIR/SP/G            HT/PER HT/PER
                 (UTC) (F)     (DEG/KT/KT) (MB)    (FT/S) (FT/S)
44066 TX TWR #4  2200   76 75  210/ 14/ 16 1010.8F   2/ 9   2/ 9
CAPE MAY NJ      2200   77 80  160/ 14/ 20 1010.2F
LEWES DE         2200   85 74  170/  8/ 12 1010.1F
15NM E FENWICK I 2200   78 77              1011.2F   2/ 8
OCEAN-CITY-INLET 2200   75 73  220/ 11/ 13 1011.2F
WACHAPREAGUE VA  2200   81 85  190/ 12/ 15 1011.5F
THOMAS POINT MD  2200   82 80  170/ 16/ 18 1009.7F
GOOSES REEF MD   2200   82     170/ 14/ 16 1010.5F
COVE POINT MD    2200   81     180/ 15/ 17 1010.2F
SOLOMONS ISLAND  2200      82                N/A
BISHOPS HEAD MD  2200   84 86  180/ 16/ 19 1010.1F
PINEY POINT MD   2200          220/  9/ 10   N/A
POTOMAC MD       2200   85     170/ 10/ 12 1009.9F
CAMBRIDGE MD     2200   87 80  190/  7/ 13 1010.2F
LEWISETTA VA     2200   89 85  200/ 10/ 11 1010.0F
RAPPAHANNOCK LGT 2200          170/ 15/ 16 1011.5F
STINGRAY PT      2200   82     170/ 16/ 19 1011.7F
YORK RVR RNG VA  2200   86     210/ 12/ 14 1010.7F
YORKTOWN VA      2200   89 81  220/  9/ 13 1010.9F
JAMESTOWN VA     2200   88     230/ 10/ 14   N/A
DOMINION TERM VA 2200   86     210/ 10/ 11 1011.8F
KIPTOPEKE VA     2200      85  170/ 13/ 14   N/A
CHES BAY BRIDGE  2200   86 79  110/  2/  4 1011.4S
CAPE HENRY VA    2200   88     190/  8/ 12 1010.7S
WILLOUBY STN VA  2200          210/ 13/ 15 1011.0F
S CRANEY ISL VA  2200          180/  8/ 13 1011.7F
CAPE HENRY BUOY  2200      77                N/A     3/ 3
1ST LANDING BUOY 2200   83     130/  8/ 10 1011.5S
CAPE CHARLES BUO 2200      78                N/A     2/ 3
OFFSHORE WE BUOY 2200      78                N/A     3/ 7
64NM E OF VA BCH 2200   79 79  190/ 14/ 16 1012.8F   3/ 6   2/ 6
DUCK PIER NC     2200   84 74  150/  6/  7 1012.3F
44056 DUCK FRF   2200                        N/A     2/ 8
OREGON INLET NC  2200   81 83  200/ 20/ 22 1013.6F
HATTERAS NC      2200   80 83  210/ 11/ 16 1015.0R
DIAMOND SHLS NC  2200          VRB 21/ 25  1013.8F   4/ 4   2/ 7
CAPE LOOKOUT NC  2100   81     200/ 12/ 15 1014.9F
$$



USA.gov is the U.S. government's official web portal to all federal, state and local government web resources and services.